GFSMA_500_temp_024.txt.gz
Temp
-14 -14 -14 -14 -14 -14 -14 -14 -14 -14 -15 -15 -15 -15 -15 -15 -15 -15 -16 -16 -16 -16 -17 -17 -17 -18 -18 -18 -18 -18 -18 -18 -17 -17 -17 -17 -17 -17 -16 -16 -16 -16 -16
-14 -14 -14 -14 -14 -15 -15 -15 -15 -15 -15 -16 -16 -16 -16 -16 -16 -16 -16 -16 -16 -16 -16 -17 -17 -17 -18 -18 -18 -18 -18 -18 -18 -18 -18 -17 -17 -17 -17 -17 -17 -16 -16
-15 -14 -14 -15 -15 -15 -15 -15 -16 -16 -16 -16 -17 -17 -17 -17 -17 -17 -17 -17 -17 -17 -18 -18 -17 -18 -18 -18 -19 -19 -19 -19 -18 -18 -18 -18 -18 -18 -17 -17 -17 -17 -16
-14 -15 -15 -15 -15 -16 -16 -16 -16 -17 -17 -17 -17 -18 -18 -18 -18 -18 -18 -19 -19 -19 -19 -19 -19 -19 -18 -18 -19 -19 -19 -19 -19 -19 -19 -19 -18 -18 -18 -18 -17 -17 -17
-15 -15 -15 -15 -16 -16 -16 -17 -17 -17 -17 -17 -18 -18 -18 -18 -18 -19 -19 -19 -19 -19 -19 -19 -19 -19 -19 -19 -19 -19 -18 -18 -18 -19 -19 -19 -19 -19 -18 -18 -17 -17 -17
-15 -15 -16 -16 -16 -17 -17 -17 -17 -17 -17 -18 -18 -18 -19 -19 -19 -19 -20 -20 -20 -20 -20 -19 -19 -19 -19 -18 -18 -18 -18 -18 -18 -18 -18 -19 -19 -19 -19 -18 -18 -17 -17
-15 -16 -16 -16 -17 -17 -17 -17 -17 -17 -18 -18 -19 -19 -19 -19 -20 -20 -20 -20 -20 -20 -20 -20 -20 -20 -19 -19 -19 -19 -18 -19 -18 -18 -18 -18 -18 -18 -18 -18 -18 -18 -17
-16 -16 -16 -17 -17 -17 -17 -17 -17 -18 -18 -18 -19 -19 -19 -20 -20 -20 -20 -20 -20 -21 -21 -21 -21 -21 -21 -20 -20 -20 -20 -20 -19 -18 -18 -18 -18 -18 -17 -18 -18 -18 -18
-16 -16 -17 -17 -17 -17 -18 -18 -18 -18 -19 -19 -19 -19 -19 -20 -20 -20 -20 -21 -21 -21 -22 -22 -22 -22 -22 -22 -21 -21 -21 -20 -20 -19 -20 -19 -19 -18 -18 -17 -17 -17 -18
-16 -17 -17 -17 -17 -17 -18 -18 -18 -19 -19 -19 -19 -20 -20 -20 -20 -20 -21 -21 -21 -21 -22 -22 -23 -23 -22 -22 -22 -22 -23 -24 -24 -24 -24 -23 -22 -20 -18 -18 -18 -17 -17
-16 -17 -17 -17 -17 -18 -18 -18 -19 -19 -19 -19 -20 -20 -20 -21 -21 -21 -22 -22 -22 -22 -23 -23 -23 -23 -22 -22 -24 -26 -26 -26 -26 -27 -27 -26 -26 -24 -23 -21 -20 -19 -18
-17 -17 -17 -18 -18 -19 -19 -19 -19 -19 -19 -20 -20 -20 -21 -21 -21 -21 -21 -21 -22 -23 -23 -23 -23 -23 -24 -26 -28 -29 -29 -29 -29 -29 -29 -28 -27 -27 -27 -25 -23 -22 -20
-17 -17 -18 -18 -19 -19 -19 -19 -19 -19 -20 -20 -20 -21 -21 -22 -22 -22 -22 -22 -23 -24 -23 -24 -24 -25 -27 -28 -30 -30 -30 -31 -30 -30 -29 -29 -30 -30 -29 -28 -26 -25 -24
-18 -18 -19 -19 -19 -19 -19 -19 -20 -20 -20 -20 -21 -21 -21 -22 -22 -22 -23 -24 -24 -23 -23 -24 -26 -29 -30 -30 -30 -30 -31 -31 -31 -31 -30 -30 -30 -30 -30 -29 -29 -28 -27
-19 -19 -19 -20 -19 -20 -20 -20 -20 -20 -20 -21 -21 -22 -22 -22 -23 -23 -24 -24 -23 -23 -24 -25 -28 -30 -31 -31 -31 -31 -30 -31 -31 -31 -30 -30 -30 -30 -30 -29 -29 -29 -28
-19 -19 -20 -20 -20 -20 -20 -20 -20 -21 -21 -21 -22 -22 -22 -23 -24 -24 -24 -24 -25 -25 -25 -27 -29 -30 -30 -30 -30 -30 -30 -30 -31 -31 -31 -31 -30 -30 -30 -30 -29 -29 -29
-20 -20 -20 -20 -20 -20 -20 -21 -21 -22 -22 -22 -23 -23 -23 -24 -24 -25 -25 -25 -26 -27 -28 -29 -30 -31 -30 -30 -30 -30 -30 -30 -30 -31 -31 -31 -31 -30 -30 -30 -30 -29 -29
-20 -20 -20 -20 -20 -20 -21 -21 -22 -22 -22 -23 -24 -24 -24 -24 -24 -25 -26 -27 -28 -29 -30 -30 -31 -31 -31 -31 -30 -30 -31 -31 -31 -31 -32 -32 -31 -31 -31 -31 -30 -30 -30
-20 -20 -20 -20 -21 -21 -21 -22 -22 -23 -23 -23 -24 -25 -25 -25 -26 -27 -27 -28 -30 -31 -31 -31 -31 -32 -31 -31 -30 -30 -30 -31 -32 -32 -32 -32 -32 -32 -32 -31 -31 -31 -31
-20 -20 -20 -21 -21 -22 -22 -23 -23 -23 -23 -25 -25 -25 -26 -26 -27 -28 -29 -30 -31 -32 -32 -33 -32 -32 -31 -31 -31 -30 -31 -32 -32 -33 -33 -32 -32 -32 -32 -32 -31 -31 -31
-20 -20 -21 -22 -22 -23 -23 -24 -24 -25 -26 -26 -26 -27 -27 -28 -29 -30 -31 -31 -32 -32 -33 -33 -33 -32 -32 -32 -31 -32 -32 -32 -33 -32 -32 -32 -32 -31 -31 -31 -31 -31 -31
-21 -22 -22 -23 -23 -24 -24 -25 -26 -26 -26 -27 -27 -28 -29 -30 -30 -31 -32 -32 -33 -33 -33 -33 -33 -32 -32 -32 -32 -32 -32 -33 -33 -32 -32 -32 -31 -31 -30 -30 -30 -30 -30
-22 -23 -23 -24 -24 -25 -26 -26 -26 -26 -28 -28 -29 -30 -30 -31 -31 -32 -33 -33 -34 -33 -33 -33 -33 -32 -33 -32 -32 -33 -33 -33 -33 -32 -32 -32 -31 -31 -31 -31 -30 -31 -31
-23 -24 -24 -25 -25 -26 -27 -26 -28 -28 -29 -29 -30 -31 -31 -31 -32 -33 -34 -34 -34 -34 -33 -33 -33 -33 -33 -33 -33 -33 -33 -33 -33 -32 -32 -33 -31 -32 -32 -33 -33 -33 -33
-24 -25 -25 -25 -27 -27 -27 -29 -29 -29 -30 -30 -31 -31 -32 -32 -32 -33 -34 -34 -34 -34 -34 -33 -33 -33 -33 -33 -33 -33 -33 -33 -33 -32 -33 -33 -33 -34 -35 -36 -36 -36 -36
-24 -25 -25 -26 -27 -28 -29 -30 -30 -30 -30 -31 -31 -32 -32 -32 -33 -34 -34 -34 -34 -34 -34 -34 -34 -33 -33 -34 -34 -34 -34 -33 -33 -33 -33 -34 -34 -35 -36 -36 -37 -37 -37

GFSMA_500_temp_030.txt.gz
Temp
-14 -14 -14 -15 -14 -14 -14 -15 -15 -15 -15 -15 -15 -15 -15 -15 -15 -15 -16 -16 -16 -16 -16 -16 -16 -16 -17 -17 -17 -17 -16 -17 -17 -17 -18 -18 -18 -18 -18 -18 -17 -18 -17
-14 -14 -14 -14 -15 -15 -15 -15 -15 -15 -15 -15 -15 -15 -15 -15 -16 -16 -16 -16 -16 -16 -16 -16 -16 -17 -17 -17 -17 -17 -18 -18 -18 -18 -18 -19 -19 -18 -18 -18 -18 -18 -18
-15 -14 -15 -15 -15 -15 -15 -15 -15 -15 -15 -16 -16 -16 -16 -16 -16 -17 -17 -17 -17 -17 -17 -17 -17 -17 -17 -18 -18 -19 -19 -19 -19 -19 -19 -19 -19 -19 -19 -19 -18 -18 -18
-15 -15 -15 -15 -15 -15 -15 -15 -15 -16 -16 -16 -16 -16 -17 -17 -17 -17 -18 -18 -18 -18 -18 -18 -18 -18 -18 -18 -19 -19 -19 -19 -19 -19 -19 -19 -19 -20 -20 -20 -19 -19 -18
-14 -14 -15 -15 -15 -15 -15 -15 -16 -16 -16 -17 -17 -17 -17 -17 -18 -18 -18 -18 -19 -19 -19 -19 -19 -19 -19 -19 -19 -19 -19 -19 -19 -19 -19 -19 -19 -19 -19 -20 -20 -20 -19
-15 -15 -15 -15 -15 -15 -16 -16 -16 -17 -17 -17 -17 -18 -18 -18 -18 -19 -19 -19 -19 -19 -19 -19 -19 -19 -19 -20 -20 -20 -20 -20 -20 -20 -19 -19 -19 -19 -19 -19 -19 -20 -20
-15 -15 -15 -16 -16 -16 -16 -17 -17 -17 -18 -18 -19 -19 -19 -19 -19 -19 -19 -20 -20 -20 -20 -20 -20 -20 -20 -20 -20 -20 -21 -21 -21 -21 -20 -20 -20 -20 -20 -20 -19 -19 -19
-15 -16 -16 -16 -16 -16 -17 -17 -18 -18 -19 -19 -19 -19 -19 -19 -19 -20 -20 -20 -20 -20 -20 -20 -21 -21 -21 -22 -22 -22 -22 -22 -22 -22 -22 -22 -22 -22 -22 -21 -21 -21 -20
-16 -16 -16 -16 -17 -17 -17 -18 -18 -19 -19 -19 -19 -19 -19 -20 -20 -20 -20 -20 -20 -20 -21 -21 -22 -22 -22 -22 -22 -22 -22 -22 -22 -22 -22 -22 -22 -22 -23 -23 -23 -23 -22
-16 -16 -16 -17 -17 -18 -18 -18 -19 -19 -19 -19 -19 -20 -20 -20 -19 -19 -20 -20 -20 -21 -21 -22 -22 -22 -22 -22 -23 -23 -23 -23 -23 -24 -24 -24 -24 -24 -24 -24 -24 -23 -23
-16 -16 -17 -17 -18 -19 -19 -20 -19 -19 -19 -19 -20 -19 -19 -19 -20 -20 -20 -21 -21 -22 -22 -22 -22 -23 -23 -23 -23 -24 -24 -25 -24 -24 -24 -24 -24 -25 -25 -25 -25 -25 -25
-17 -17 -18 -18 -19 -19 -19 -19 -19 -19 -19 -19 -19 -19 -20 -20 -20 -21 -21 -21 -22 -22 -23 -23 -23 -24 -24 -25 -25 -25 -25 -25 -25 -25 -25 -25 -25 -26 -26 -27 -27 -28 -28
-17 -18 -18 -19 -19 -19 -19 -19 -19 -19 -20 -20 -20 -20 -20 -20 -21 -22 -22 -22 -22 -23 -24 -24 -25 -25 -26 -26 -26 -26 -26 -26 -26 -26 -26 -26 -27 -27 -28 -29 -29 -29 -29
-18 -18 -18 -18 -19 -19 -19 -19 -20 -20 -19 -19 -20 -20 -21 -22 -22 -23 -23 -23 -24 -24 -25 -26 -27 -27 -27 -27 -27 -27 -28 -29 -29 -29 -29 -28 -29 -29 -29 -29 -29 -29 -29
-18 -18 -18 -18 -19 -19 -20 -20 -20 -19 -20 -20 -20 -21 -22 -22 -22 -23 -23 -24 -25 -26 -27 -27 -27 -27 -28 -29 -29 -30 -30 -30 -30 -30 -30 -30 -30 -30 -29 -29 -29 -29 -29
-18 -18 -18 -19 -19 -20 -20 -20 -20 -20 -20 -21 -22 -22 -22 -22 -23 -23 -24 -26 -28 -27 -27 -28 -29 -29 -30 -30 -30 -31 -31 -31 -31 -31 -31 -31 -31 -30 -30 -29 -29 -29 -29
-18 -18 -19 -19 -19 -20 -20 -20 -20 -20 -21 -22 -22 -22 -23 -23 -23 -25 -27 -27 -28 -29 -29 -29 -30 -30 -31 -31 -31 -32 -32 -32 -32 -32 -32 -31 -31 -30 -30 -29 -29 -29 -29
-18 -19 -19 -19 -20 -21 -21 -21 -21 -22 -22 -23 -23 -23 -23 -23 -25 -27 -28 -29 -30 -30 -30 -30 -31 -31 -32 -32 -32 -33 -33 -33 -33 -33 -32 -32 -31 -31 -30 -29 -29 -29 -29
-19 -20 -20 -20 -21 -21 -21 -22 -22 -23 -23 -23 -23 -23 -24 -25 -27 -28 -29 -30 -30 -30 -30 -31 -31 -32 -32 -33 -33 -33 -33 -33 -33 -32 -32 -32 -31 -31 -30 -30 -30 -30 -31
-20 -20 -20 -21 -21 -22 -22 -22 -22 -22 -23 -23 -24 -25 -26 -27 -29 -29 -30 -30 -30 -30 -31 -32 -32 -32 -33 -33 -33 -33 -33 -33 -33 -32 -32 -32 -32 -31 -31 -31 -31 -32 -32
-20 -20 -20 -21 -21 -22 -22 -22 -22 -23 -23 -24 -25 -26 -27 -29 -30 -30 -30 -30 -30 -31 -31 -32 -32 -33 -33 -34 -34 -34 -33 -33 -33 -32 -33 -33 -32 -32 -32 -32 -32 -32 -31
-20 -20 -20 -21 -22 -22 -22 -23 -23 -24 -24 -25 -26 -27 -29 -30 -30 -30 -31 -31 -31 -31 -32 -33 -33 -33 -34 -34 -34 -34 -33 -33 -33 -33 -34 -33 -32 -32 -32 -32 -32 -32 -31
-21 -21 -21 -21 -21 -22 -22 -23 -24 -24 -25 -26 -27 -29 -30 -30 -30 -31 -31 -31 -31 -32 -32 -33 -33 -34 -34 -34 -34 -34 -34 -33 -33 -33 -33 -34 -33 -33 -33 -33 -32 -32 -31
-21 -21 -21 -22 -22 -23 -24 -24 -25 -25 -26 -27 -29 -30 -30 -31 -31 -31 -31 -31 -31 -32 -33 -33 -33 -34 -34 -35 -35 -34 -34 -34 -34 -33 -33 -34 -33 -34 -33 -32 -32 -32 -32
-21 -21 -22 -22 -23 -24 -24 -25 -26 -26 -27 -28 -30 -30 -31 -31 -31 -31 -31 -31 -32 -32 -33 -33 -34 -35 -35 -35 -35 -35 -35 -34 -34 -34 -33 -34 -34 -34 -33 -33 -32 -32 -32
-21 -22 -23 -23 -24 -24 -25 -26 -26 -27 -28 -29 -30 -31 -31 -31 -31 -32 -32 -32 -32 -33 -33 -34 -34 -35 -35 -35 -35 -35 -35 -35 -34 -35 -34 -35 -34 -33 -34 -34 -32 -33 -34

GFSMA_500_temp_033.txt.gz
Temp
-15 -14 -14 -14 -14 -14 -14 -14 -14 -15 -15 -15 -15 -15 -15 -15 -15 -15 -15 -16 -16 -15 -15 -15 -15 -16 -16 -16 -16 -16 -16 -16 -16 -16 -17 -18 -18 -18 -18 -18 -18 -18 -17
-15 -14 -14 -14 -14 -14 -15 -15 -15 -15 -15 -15 -15 -15 -15 -16 -16 -16 -16 -16 -16 -16 -16 -15 -16 -16 -17 -17 -17 -17 -17 -17 -17 -17 -17 -18 -19 -18 -18 -19 -19 -18 -18
-14 -14 -14 -14 -15 -15 -15 -15 -15 -15 -15 -15 -15 -15 -16 -16 -16 -16 -16 -16 -16 -16 -16 -16 -17 -17 -17 -17 -18 -18 -18 -18 -18 -18 -18 -18 -18 -18 -19 -19 -19 -19 -19
-14 -14 -14 -15 -15 -15 -15 -15 -15 -15 -15 -16 -16 -16 -16 -16 -16 -16 -16 -17 -17 -17 -17 -17 -17 -17 -17 -17 -17 -18 -18 -18 -18 -19 -19 -18 -19 -19 -19 -20 -19 -19 -19
-15 -15 -15 -15 -15 -15 -15 -15 -15 -16 -16 -16 -16 -16 -16 -16 -16 -16 -17 -17 -18 -18 -18 -18 -18 -18 -18 -18 -18 -18 -18 -19 -19 -19 -19 -19 -19 -19 -19 -19 -20 -20 -20
-15 -15 -15 -15 -15 -15 -15 -16 -16 -16 -16 -16 -16 -17 -17 -17 -17 -17 -18 -18 -18 -18 -18 -18 -18 -18 -19 -19 -19 -19 -19 -19 -19 -19 -20 -20 -20 -20 -19 -19 -19 -19 -20
-15 -15 -15 -15 -15 -16 -16 -16 -16 -17 -17 -17 -17 -17 -17 -18 -18 -18 -19 -19 -19 -19 -19 -19 -19 -20 -20 -20 -20 -20 -20 -20 -20 -20 -20 -20 -21 -21 -20 -20 -20 -19 -19
-15 -16 -16 -16 -16 -16 -16 -17 -17 -17 -17 -17 -17 -17 -18 -18 -19 -19 -19 -19 -19 -19 -20 -20 -20 -21 -21 -21 -21 -22 -22 -21 -21 -21 -21 -21 -21 -21 -21 -21 -21 -21 -20
-16 -16 -16 -16 -16 -17 -17 -17 -17 -17 -19 -19 -19 -19 -19 -19 -19 -19 -19 -20 -20 -20 -20 -21 -21 -22 -22 -22 -22 -22 -22 -22 -22 -22 -22 -22 -22 -22 -22 -22 -22 -22 -22
-16 -16 -16 -16 -17 -17 -17 -17 -17 -18 -19 -19 -19 -19 -19 -19 -19 -20 -20 -20 -20 -21 -21 -21 -21 -21 -22 -22 -22 -22 -23 -23 -24 -24 -24 -24 -23 -23 -23 -23 -23 -23 -23
-16 -16 -16 -17 -17 -17 -17 -18 -19 -18 -19 -19 -19 -19 -19 -20 -20 -20 -20 -20 -20 -21 -22 -22 -22 -22 -22 -22 -23 -25 -26 -26 -25 -25 -25 -26 -26 -26 -25 -25 -25 -25 -24
-16 -16 -17 -17 -18 -18 -18 -18 -18 -18 -19 -19 -19 -20 -20 -20 -20 -20 -20 -21 -21 -22 -22 -22 -22 -22 -23 -24 -26 -27 -27 -27 -27 -27 -27 -26 -27 -26 -26 -26 -26 -25 -25
-17 -17 -17 -18 -18 -18 -19 -19 -19 -19 -19 -19 -20 -20 -20 -20 -20 -20 -20 -21 -21 -22 -22 -23 -23 -24 -26 -27 -28 -29 -28 -29 -29 -28 -28 -28 -28 -28 -28 -27 -27 -27 -27
-17 -17 -18 -18 -18 -19 -19 -19 -19 -19 -20 -20 -20 -20 -20 -20 -20 -20 -21 -22 -22 -22 -23 -24 -25 -27 -28 -29 -29 -29 -30 -30 -30 -30 -30 -30 -30 -30 -29 -29 -29 -29 -28
-17 -17 -17 -18 -19 -19 -19 -19 -19 -19 -20 -20 -20 -20 -20 -21 -21 -22 -22 -23 -23 -24 -24 -25 -27 -29 -30 -30 -30 -30 -31 -31 -31 -31 -31 -31 -31 -31 -31 -31 -30 -30 -30
-17 -17 -18 -18 -19 -19 -19 -19 -20 -20 -20 -20 -20 -21 -21 -21 -22 -22 -23 -23 -24 -25 -26 -28 -30 -30 -30 -30 -30 -31 -31 -31 -32 -32 -32 -32 -32 -32 -32 -32 -31 -31 -30
-17 -18 -18 -18 -19 -19 -19 -20 -20 -21 -21 -20 -21 -21 -22 -22 -23 -23 -24 -25 -25 -27 -28 -30 -30 -30 -30 -31 -31 -32 -32 -32 -32 -33 -33 -33 -33 -33 -32 -32 -32 -31 -31
-17 -18 -18 -18 -18 -19 -20 -20 -21 -21 -21 -21 -22 -22 -23 -23 -24 -24 -25 -26 -27 -29 -30 -30 -30 -31 -31 -31 -32 -32 -32 -33 -33 -33 -33 -33 -33 -33 -32 -32 -32 -31 -31
-18 -17 -18 -18 -19 -20 -20 -21 -21 -21 -21 -22 -23 -23 -23 -24 -25 -25 -26 -27 -29 -30 -30 -31 -31 -31 -31 -32 -32 -33 -33 -33 -33 -33 -33 -33 -33 -32 -32 -32 -32 -31 -30
-17 -18 -18 -19 -20 -20 -21 -21 -21 -21 -22 -22 -23 -23 -24 -25 -25 -26 -27 -29 -30 -30 -31 -31 -31 -31 -31 -32 -33 -33 -34 -34 -34 -33 -33 -33 -32 -32 -32 -32 -32 -32 -31
-18 -19 -20 -20 -20 -21 -21 -21 -22 -22 -22 -23 -23 -24 -25 -25 -26 -27 -28 -30 -30 -31 -31 -31 -31 -31 -32 -33 -33 -33 -34 -34 -34 -34 -33 -33 -32 -33 -32 -32 -32 -32 -31
-19 -20 -20 -20 -21 -21 -21 -21 -22 -22 -23 -23 -24 -25 -25 -26 -27 -28 -29 -30 -31 -31 -31 -31 -31 -32 -32 -33 -33 -34 -34 -34 -34 -34 -34 -34 -33 -33 -33 -33 -33 -32 -32
-20 -20 -21 -20 -21 -21 -21 -21 -22 -22 -23 -24 -25 -25 -26 -27 -28 -29 -31 -31 -31 -31 -32 -32 -32 -32 -33 -33 -34 -34 -34 -35 -34 -34 -34 -34 -33 -34 -33 -33 -33 -33 -32
-20 -21 -21 -21 -21 -22 -22 -22 -23 -23 -24 -25 -25 -26 -27 -28 -30 -31 -31 -31 -32 -32 -32 -32 -32 -33 -33 -34 -34 -35 -35 -35 -35 -34 -33 -34 -34 -34 -34 -33 -33 -33 -33
-21 -22 -21 -21 -22 -22 -22 -23 -24 -24 -25 -26 -26 -27 -28 -29 -31 -31 -32 -32 -32 -32 -32 -32 -32 -33 -34 -34 -34 -35 -35 -35 -35 -35 -34 -34 -34 -35 -35 -34 -33 -33 -33
-22 -22 -22 -22 -22 -22 -23 -24 -25 -25 -26 -26 -26 -28 -29 -31 -32 -32 -32 -32 -32 -33 -32 -32 -33 -34 -34 -34 -35 -35 -35 -35 -35 -35 -35 -35 -34 -34 -35 -34 -34 -33 -33

GFSMA_500_temp_036.txt.gz
Temp
-15 -15 -15 -14 -14 -14 -14 -14 -14 -14 -15 -15 -14 -15 -15 -15 -15 -15 -15 -15 -15 -15 -15 -15 -15 -15 -16 -16 -16 -16 -16 -16 -16 -16 -16 -17 -17 -17 -17 -17 -17 -18 -18
-15 -15 -14 -14 -14 -14 -14 -15 -15 -15 -15 -14 -15 -15 -15 -15 -15 -15 -15 -15 -15 -15 -15 -15 -15 -16 -16 -17 -17 -17 -17 -17 -17 -17 -17 -17 -17 -17 -17 -18 -18 -18 -18
-15 -14 -14 -15 -14 -14 -14 -14 -15 -15 -15 -15 -15 -15 -15 -15 -15 -15 -15 -15 -16 -16 -16 -16 -16 -16 -16 -16 -17 -17 -17 -17 -17 -17 -17 -17 -17 -17 -17 -17 -18 -18 -18
-15 -14 -15 -15 -14 -14 -15 -15 -15 -15 -15 -15 -15 -15 -15 -15 -15 -16 -16 -16 -17 -16 -17 -17 -17 -17 -17 -17 -17 -18 -18 -18 -18 -18 -18 -18 -18 -18 -18 -18 -18 -18 -19
-14 -15 -15 -15 -15 -15 -15 -15 -15 -15 -15 -15 -15 -15 -15 -15 -16 -17 -17 -17 -17 -18 -18 -18 -18 -18 -18 -18 -18 -18 -18 -18 -19 -19 -19 -19 -19 -19 -19 -19 -19 -19 -19
-15 -15 -15 -15 -15 -15 -16 -16 -15 -16 -15 -15 -15 -15 -15 -16 -17 -17 -17 -18 -18 -18 -18 -18 -18 -18 -18 -18 -19 -19 -19 -19 -19 -19 -19 -20 -20 -20 -20 -19 -19 -19 -19
-15 -15 -15 -16 -16 -16 -16 -15 -16 -16 -16 -16 -16 -16 -16 -17 -17 -17 -18 -18 -18 -18 -18 -18 -19 -19 -19 -19 -19 -19 -19 -20 -20 -20 -20 -20 -20 -20 -21 -20 -20 -20 -20
-15 -15 -16 -16 -16 -15 -15 -16 -16 -16 -16 -16 -17 -17 -17 -17 -18 -19 -19 -18 -18 -19 -19 -19 -20 -20 -20 -20 -19 -20 -20 -21 -21 -22 -21 -21 -21 -21 -21 -21 -21 -21 -21
-16 -16 -16 -16 -16 -15 -16 -16 -16 -16 -17 -17 -18 -18 -18 -18 -18 -18 -19 -19 -19 -19 -19 -20 -20 -20 -20 -21 -21 -22 -22 -22 -22 -22 -22 -22 -22 -23 -23 -22 -22 -22 -22
-16 -16 -16 -15 -15 -16 -16 -16 -16 -17 -18 -18 -18 -18 -19 -19 -19 -19 -19 -19 -20 -20 -20 -20 -20 -20 -21 -22 -22 -22 -22 -22 -23 -23 -24 -25 -26 -26 -25 -25 -24 -24 -24
-16 -16 -16 -16 -17 -16 -17 -17 -17 -18 -18 -18 -18 -18 -18 -19 -19 -20 -20 -20 -20 -20 -20 -20 -21 -22 -22 -22 -23 -23 -23 -24 -25 -26 -27 -28 -28 -28 -27 -27 -26 -26 -26
-16 -16 -16 -16 -16 -17 -16 -17 -18 -18 -18 -18 -19 -19 -19 -19 -20 -20 -20 -20 -20 -21 -21 -22 -22 -22 -23 -23 -23 -24 -25 -26 -28 -29 -29 -29 -29 -29 -29 -28 -28 -27 -27
-16 -16 -16 -17 -17 -16 -17 -18 -18 -18 -18 -19 -19 -19 -20 -20 -20 -20 -20 -21 -21 -21 -22 -22 -23 -23 -24 -24 -25 -26 -27 -29 -30 -30 -30 -30 -30 -30 -30 -30 -29 -29 -28
-16 -16 -16 -16 -16 -17 -18 -18 -18 -18 -19 -19 -19 -20 -20 -20 -20 -20 -21 -21 -22 -22 -23 -23 -23 -24 -24 -25 -26 -28 -30 -30 -30 -30 -31 -31 -31 -31 -31 -31 -31 -31 -30
-16 -16 -16 -17 -17 -18 -18 -18 -18 -19 -20 -19 -19 -20 -20 -21 -21 -21 -21 -22 -23 -23 -23 -24 -24 -25 -25 -27 -29 -30 -30 -30 -30 -31 -32 -32 -32 -32 -32 -32 -32 -31 -31
-16 -17 -17 -17 -17 -18 -18 -18 -19 -20 -20 -20 -20 -21 -21 -21 -21 -21 -22 -23 -23 -23 -24 -25 -25 -26 -28 -29 -30 -31 -31 -31 -31 -31 -32 -32 -32 -32 -33 -33 -32 -32 -32
-17 -17 -17 -17 -17 -18 -18 -19 -20 -20 -21 -21 -21 -21 -21 -21 -22 -22 -23 -23 -24 -24 -25 -25 -26 -28 -29 -30 -31 -31 -31 -31 -31 -32 -32 -32 -33 -33 -33 -33 -33 -33 -32
-16 -17 -17 -18 -18 -18 -19 -20 -20 -20 -21 -21 -21 -21 -22 -22 -22 -23 -23 -24 -24 -25 -25 -26 -28 -30 -30 -31 -31 -31 -31 -31 -31 -32 -32 -33 -33 -33 -33 -33 -33 -33 -32
-16 -17 -17 -18 -18 -19 -20 -20 -20 -21 -21 -21 -21 -21 -21 -22 -22 -23 -24 -24 -25 -25 -26 -27 -29 -30 -31 -31 -31 -31 -31 -31 -32 -32 -32 -33 -33 -33 -33 -32 -33 -33 -32
-18 -18 -18 -18 -18 -19 -19 -20 -20 -20 -21 -21 -21 -21 -21 -22 -23 -24 -25 -25 -26 -26 -28 -29 -30 -31 -31 -31 -31 -31 -31 -32 -33 -33 -33 -33 -33 -33 -33 -33 -33 -32 -32
-17 -17 -18 -18 -19 -20 -20 -20 -21 -21 -21 -21 -21 -22 -22 -23 -24 -25 -25 -26 -26 -28 -29 -30 -31 -32 -32 -32 -32 -32 -32 -33 -33 -33 -34 -34 -33 -33 -32 -33 -33 -33 -32
-17 -18 -18 -19 -19 -20 -20 -20 -21 -21 -21 -21 -22 -23 -23 -24 -25 -25 -26 -27 -28 -30 -31 -31 -32 -32 -32 -32 -32 -32 -32 -33 -34 -34 -34 -34 -34 -33 -33 -33 -33 -33 -33
-17 -18 -19 -19 -20 -20 -21 -21 -22 -22 -22 -22 -22 -23 -24 -25 -25 -26 -27 -28 -29 -31 -31 -32 -32 -32 -32 -32 -32 -33 -33 -34 -34 -34 -34 -35 -34 -34 -33 -33 -33 -33 -33
-18 -18 -19 -20 -20 -21 -22 -22 -22 -22 -22 -22 -23 -24 -25 -25 -26 -27 -28 -29 -31 -32 -32 -32 -32 -32 -32 -32 -33 -33 -34 -34 -34 -35 -34 -35 -34 -34 -33 -33 -33 -34 -34
-18 -19 -20 -20 -21 -22 -22 -22 -22 -22 -22 -23 -24 -25 -26 -26 -27 -28 -30 -31 -32 -32 -32 -32 -32 -32 -32 -33 -33 -33 -34 -34 -35 -35 -35 -35 -35 -34 -34 -33 -33 -33 -34
-19 -19 -20 -21 -22 -22 -22 -22 -22 -22 -23 -24 -25 -25 -26 -27 -29 -30 -31 -32 -32 -32 -32 -32 -32 -33 -33 -33 -33 -34 -35 -35 -35 -35 -35 -35 -35 -34 -35 -33 -34 -34 -34

GFSMA_500_temp_039.txt.gz
Temp
-14 -15 -15 -15 -14 -14 -14 -14 -15 -14 -14 -14 -15 -14 -14 -14 -14 -14 -14 -14 -14 -14 -14 -14 -15 -15 -15 -16 -16 -16 -16 -16 -16 -16 -16 -16 -16 -16 -16 -16 -17 -17 -17
-15 -15 -15 -15 -15 -14 -15 -14 -14 -14 -15 -14 -14 -14 -14 -14 -14 -14 -14 -14 -14 -14 -15 -15 -15 -15 -16 -16 -16 -17 -17 -17 -17 -17 -17 -17 -17 -17 -17 -17 -17 -17 -17
-15 -15 -15 -15 -15 -15 -14 -15 -15 -14 -14 -14 -15 -15 -14 -14 -15 -15 -15 -15 -15 -16 -16 -16 -16 -16 -16 -16 -17 -17 -17 -17 -17 -17 -17 -17 -17 -17 -17 -17 -17 -17 -18
-15 -15 -15 -15 -15 -15 -15 -15 -15 -14 -14 -15 -14 -14 -14 -14 -15 -15 -15 -16 -16 -15 -16 -17 -17 -17 -17 -17 -17 -17 -17 -17 -17 -17 -18 -18 -18 -17 -18 -18 -18 -17 -18
-15 -15 -15 -15 -15 -15 -15 -15 -15 -15 -15 -15 -14 -14 -15 -15 -15 -16 -16 -16 -17 -17 -16 -17 -18 -18 -18 -18 -18 -18 -18 -17 -17 -17 -18 -18 -18 -18 -18 -18 -18 -19 -19
-15 -15 -15 -15 -15 -15 -15 -15 -15 -14 -15 -15 -15 -14 -15 -15 -16 -16 -16 -17 -17 -17 -18 -18 -18 -18 -18 -18 -18 -18 -18 -18 -18 -18 -18 -18 -18 -19 -19 -19 -19 -19 -19
-15 -15 -15 -15 -15 -15 -15 -15 -15 -15 -15 -15 -15 -15 -14 -15 -16 -17 -17 -17 -17 -18 -18 -18 -19 -19 -18 -18 -18 -18 -19 -19 -19 -19 -19 -19 -20 -20 -20 -20 -20 -20 -20
-16 -15 -15 -15 -15 -16 -15 -15 -15 -15 -15 -16 -16 -16 -17 -16 -15 -16 -18 -18 -19 -19 -19 -19 -19 -19 -19 -19 -19 -18 -18 -20 -21 -21 -21 -21 -21 -21 -21 -21 -21 -21 -21
-16 -16 -16 -16 -16 -16 -16 -15 -15 -15 -16 -16 -17 -17 -17 -17 -17 -16 -16 -18 -19 -19 -19 -19 -19 -19 -19 -19 -20 -20 -20 -21 -21 -21 -21 -21 -21 -21 -22 -23 -24 -24 -24
-16 -16 -16 -16 -16 -16 -16 -15 -16 -16 -16 -17 -17 -17 -17 -18 -18 -19 -18 -17 -18 -19 -19 -19 -20 -20 -19 -20 -20 -20 -21 -21 -21 -22 -22 -22 -22 -24 -25 -27 -28 -28 -28
-16 -16 -16 -16 -16 -16 -16 -16 -16 -16 -16 -17 -17 -17 -17 -18 -19 -19 -20 -20 -19 -19 -19 -19 -19 -20 -20 -21 -21 -21 -22 -22 -22 -23 -24 -24 -26 -27 -29 -30 -30 -29 -29
-16 -16 -16 -16 -16 -16 -16 -16 -16 -16 -16 -17 -18 -18 -18 -18 -19 -19 -19 -20 -20 -20 -21 -20 -20 -21 -21 -22 -22 -22 -23 -24 -23 -24 -25 -27 -29 -30 -30 -30 -30 -30 -30
-16 -16 -16 -16 -16 -16 -16 -16 -16 -16 -17 -18 -18 -18 -18 -19 -20 -20 -20 -20 -20 -21 -21 -21 -21 -21 -23 -23 -24 -24 -24 -25 -25 -26 -28 -29 -30 -30 -30 -30 -31 -31 -31
-16 -16 -16 -16 -16 -16 -16 -16 -17 -17 -17 -18 -18 -18 -19 -19 -20 -20 -20 -20 -21 -21 -22 -22 -22 -22 -22 -23 -24 -24 -25 -26 -27 -29 -30 -31 -31 -30 -31 -31 -32 -32 -31
-16 -16 -16 -16 -16 -17 -17 -17 -17 -17 -17 -18 -18 -19 -20 -20 -20 -20 -20 -21 -22 -22 -22 -23 -23 -25 -24 -24 -24 -25 -26 -28 -29 -30 -31 -31 -31 -31 -31 -32 -31 -32 -32
-16 -16 -17 -17 -16 -17 -17 -17 -17 -18 -18 -19 -19 -20 -20 -20 -20 -21 -21 -22 -22 -22 -22 -23 -24 -24 -25 -25 -26 -27 -28 -29 -31 -31 -31 -31 -31 -31 -32 -32 -32 -32 -32
-16 -16 -16 -15 -16 -16 -17 -17 -18 -19 -19 -20 -20 -20 -20 -20 -21 -21 -21 -21 -21 -22 -22 -23 -24 -25 -25 -26 -27 -28 -29 -31 -31 -31 -31 -31 -31 -32 -32 -32 -33 -32 -32
-16 -16 -16 -16 -16 -17 -18 -18 -19 -19 -20 -20 -20 -20 -21 -21 -21 -21 -21 -21 -22 -22 -23 -24 -24 -26 -26 -27 -28 -30 -31 -32 -32 -32 -31 -31 -31 -32 -32 -33 -33 -33 -32
-16 -16 -16 -16 -17 -18 -18 -18 -19 -19 -20 -20 -19 -20 -21 -21 -21 -22 -22 -22 -22 -23 -24 -24 -25 -26 -27 -29 -30 -31 -32 -32 -32 -32 -32 -31 -32 -32 -33 -33 -33 -33 -32
-17 -17 -17 -17 -17 -17 -18 -18 -19 -20 -19 -20 -21 -21 -21 -21 -22 -22 -22 -23 -24 -24 -25 -26 -26 -28 -29 -30 -31 -32 -32 -32 -32 -32 -32 -32 -32 -33 -33 -33 -33 -33 -33
-16 -17 -17 -17 -18 -18 -18 -19 -20 -20 -20 -21 -21 -22 -22 -22 -22 -23 -23 -24 -25 -25 -26 -27 -28 -30 -31 -32 -32 -32 -32 -32 -32 -32 -32 -33 -33 -33 -33 -33 -33 -33 -33
-17 -17 -17 -17 -18 -18 -19 -19 -20 -20 -20 -21 -22 -22 -22 -22 -22 -23 -24 -25 -25 -26 -28 -29 -31 -31 -32 -32 -32 -32 -32 -32 -32 -33 -33 -33 -33 -34 -34 -34 -33 -33 -33
-17 -17 -17 -18 -18 -18 -19 -19 -19 -20 -21 -22 -22 -22 -22 -22 -23 -24 -24 -24 -26 -27 -29 -30 -31 -32 -32 -32 -33 -33 -33 -33 -33 -33 -33 -33 -34 -34 -34 -34 -33 -33 -33
-17 -18 -18 -18 -18 -19 -19 -19 -20 -21 -21 -22 -22 -22 -22 -23 -23 -25 -26 -27 -27 -28 -29 -31 -32 -32 -33 -33 -33 -33 -33 -33 -33 -33 -34 -34 -34 -35 -34 -34 -34 -33 -33
-17 -18 -18 -18 -19 -19 -19 -20 -21 -21 -22 -22 -22 -23 -23 -23 -24 -26 -27 -27 -28 -30 -31 -32 -32 -32 -33 -33 -33 -34 -34 -34 -33 -34 -34 -34 -35 -35 -35 -35 -34 -33 -34
-18 -18 -18 -19 -19 -20 -20 -21 -22 -22 -22 -22 -22 -23 -23 -24 -25 -26 -27 -29 -30 -30 -32 -33 -33 -33 -33 -33 -34 -34 -34 -34 -34 -34 -35 -35 -35 -35 -35 -35 -35 -34 -34

GFSMA_500_temp_042.txt.gz
Temp
-13 -13 -14 -15 -16 -15 -15 -14 -14 -14 -14 -14 -14 -14 -14 -14 -14 -14 -14 -14 -14 -14 -13 -13 -14 -14 -15 -15 -15 -16 -16 -16 -16 -16 -16 -16 -16 -16 -16 -16 -16 -16 -16
-14 -15 -15 -16 -15 -15 -14 -15 -14 -15 -14 -14 -14 -14 -14 -14 -13 -13 -13 -14 -14 -14 -14 -14 -14 -14 -15 -16 -16 -16 -16 -17 -17 -17 -17 -17 -17 -17 -17 -17 -17 -17 -17
-15 -15 -15 -15 -15 -15 -15 -15 -15 -14 -14 -15 -14 -14 -14 -14 -14 -14 -14 -14 -14 -14 -15 -15 -14 -15 -15 -16 -16 -17 -17 -17 -17 -17 -17 -17 -17 -17 -17 -17 -17 -17 -17
-15 -15 -15 -15 -15 -15 -15 -15 -15 -15 -15 -14 -14 -14 -14 -14 -14 -14 -15 -14 -14 -14 -15 -16 -15 -16 -16 -17 -17 -17 -17 -18 -18 -18 -18 -17 -17 -17 -17 -17 -17 -18 -18
-15 -15 -15 -15 -15 -15 -15 -15 -15 -14 -14 -14 -14 -14 -15 -14 -15 -15 -15 -15 -16 -15 -15 -16 -16 -16 -17 -17 -17 -18 -18 -18 -18 -18 -17 -17 -18 -18 -18 -18 -18 -18 -18
-15 -15 -15 -15 -15 -15 -15 -15 -15 -14 -14 -15 -15 -15 -15 -15 -15 -15 -16 -16 -16 -17 -16 -17 -17 -17 -18 -18 -18 -18 -18 -19 -18 -18 -18 -18 -18 -18 -18 -18 -18 -18 -18
-16 -15 -15 -16 -15 -15 -15 -15 -15 -14 -15 -15 -15 -15 -14 -14 -15 -15 -16 -17 -17 -17 -18 -18 -18 -17 -18 -18 -19 -19 -19 -19 -19 -19 -19 -19 -19 -19 -19 -19 -19 -19 -19
-15 -16 -16 -16 -16 -15 -15 -15 -15 -15 -15 -16 -15 -15 -16 -16 -15 -15 -15 -17 -17 -17 -17 -17 -18 -19 -19 -19 -19 -19 -19 -19 -20 -20 -20 -20 -20 -20 -19 -19 -19 -19 -19
-16 -16 -16 -16 -16 -15 -16 -16 -16 -16 -15 -15 -16 -16 -16 -17 -16 -15 -15 -16 -16 -17 -18 -18 -18 -19 -20 -20 -20 -19 -20 -20 -20 -21 -21 -21 -20 -20 -20 -20 -20 -20 -20
-15 -16 -16 -16 -16 -16 -16 -16 -16 -16 -16 -15 -15 -16 -16 -17 -17 -17 -17 -17 -17 -17 -18 -19 -19 -20 -20 -19 -20 -20 -21 -21 -21 -21 -21 -21 -21 -21 -21 -21 -22 -22 -23
-16 -16 -16 -16 -16 -16 -16 -16 -16 -16 -16 -16 -16 -16 -16 -17 -18 -18 -18 -19 -18 -18 -18 -18 -19 -19 -20 -21 -21 -21 -21 -22 -21 -22 -22 -22 -22 -23 -23 -24 -25 -27 -29
-16 -16 -16 -16 -16 -16 -16 -16 -16 -16 -16 -16 -16 -17 -17 -18 -18 -17 -17 -18 -20 -19 -19 -20 -20 -20 -21 -21 -21 -21 -21 -22 -23 -23 -23 -24 -24 -25 -26 -27 -29 -30 -31
-16 -16 -16 -16 -16 -16 -16 -16 -16 -17 -17 -17 -17 -17 -18 -18 -18 -18 -19 -19 -20 -20 -20 -21 -21 -21 -22 -21 -22 -21 -22 -23 -23 -24 -25 -26 -26 -27 -29 -30 -31 -31 -31
-16 -16 -16 -16 -16 -16 -16 -17 -16 -17 -17 -17 -18 -18 -18 -18 -18 -19 -19 -20 -20 -21 -21 -22 -22 -22 -22 -22 -21 -21 -22 -23 -24 -25 -26 -27 -28 -30 -31 -31 -31 -31 -31
-16 -16 -16 -16 -17 -16 -16 -16 -17 -17 -17 -17 -18 -18 -19 -19 -19 -19 -20 -20 -20 -21 -21 -21 -22 -22 -22 -22 -22 -23 -23 -25 -26 -26 -27 -28 -30 -31 -32 -32 -31 -31 -31
-16 -17 -16 -16 -16 -16 -16 -16 -17 -17 -17 -18 -18 -18 -19 -19 -19 -20 -20 -20 -21 -21 -21 -22 -22 -22 -22 -23 -24 -24 -25 -26 -27 -28 -29 -30 -32 -32 -32 -32 -31 -32 -32
-16 -16 -16 -16 -16 -16 -16 -16 -17 -17 -18 -18 -19 -18 -19 -19 -20 -20 -20 -20 -21 -22 -22 -22 -22 -22 -23 -24 -25 -25 -26 -27 -29 -30 -31 -31 -32 -32 -32 -32 -32 -32 -32
-17 -16 -16 -16 -16 -16 -17 -16 -17 -17 -18 -18 -19 -19 -19 -20 -21 -20 -20 -21 -22 -22 -22 -22 -22 -23 -24 -25 -26 -27 -28 -29 -30 -31 -32 -32 -32 -32 -32 -32 -32 -33 -33
-17 -16 -16 -16 -17 -17 -17 -17 -17 -18 -18 -19 -19 -20 -20 -20 -21 -21 -22 -22 -22 -22 -22 -22 -22 -23 -24 -26 -27 -28 -29 -30 -31 -32 -32 -32 -32 -32 -32 -32 -33 -33 -33
-16 -17 -17 -17 -17 -17 -17 -17 -18 -18 -18 -18 -19 -19 -20 -21 -21 -21 -22 -22 -22 -23 -23 -23 -24 -25 -26 -27 -29 -29 -30 -31 -32 -32 -33 -33 -33 -33 -32 -32 -33 -33 -33
-17 -17 -17 -16 -16 -17 -17 -18 -18 -18 -18 -19 -19 -20 -20 -21 -21 -22 -22 -22 -23 -23 -23 -24 -25 -26 -27 -29 -31 -32 -32 -32 -33 -33 -33 -33 -33 -33 -33 -33 -33 -34 -34
-16 -16 -16 -17 -17 -17 -18 -18 -18 -18 -18 -19 -20 -20 -21 -21 -22 -22 -22 -23 -23 -23 -24 -26 -27 -28 -29 -31 -32 -33 -33 -33 -33 -33 -33 -33 -34 -33 -33 -34 -34 -34 -34
-17 -17 -17 -17 -18 -18 -18 -18 -19 -19 -19 -19 -20 -20 -21 -22 -22 -22 -22 -23 -23 -24 -25 -26 -27 -28 -30 -31 -33 -33 -33 -33 -33 -34 -34 -34 -34 -34 -34 -34 -35 -35 -34
-17 -17 -17 -18 -18 -18 -18 -19 -19 -19 -19 -20 -20 -21 -21 -22 -22 -22 -23 -23 -23 -24 -26 -27 -29 -30 -31 -31 -32 -33 -34 -34 -34 -34 -34 -34 -34 -34 -35 -35 -35 -35 -35
-17 -18 -18 -18 -18 -18 -19 -19 -19 -19 -20 -20 -21 -21 -21 -22 -22 -23 -23 -23 -24 -25 -27 -28 -30 -31 -31 -32 -32 -33 -34 -34 -34 -35 -35 -35 -35 -35 -35 -35 -35 -35 -35
-18 -18 -18 -18 -19 -18 -19 -19 -20 -20 -20 -20 -21 -22 -22 -22 -23 -23 -24 -24 -25 -26 -27 -28 -30 -31 -31 -32 -33 -34 -35 -35 -36 -35 -36 -36 -35 -35 -35 -36 -36 -35 -35

GFSMA_500_temp_045.txt.gz
Temp
-12 -12 -13 -13 -14 -14 -16 -15 -14 -14 -14 -15 -14 -14 -14 -14 -14 -14 -13 -13 -13 -13 -13 -13 -13 -14 -14 -14 -14 -14 -14 -15 -15 -16 -16 -16 -17 -17 -17 -17 -17 -17 -17
-13 -13 -14 -15 -15 -16 -15 -15 -14 -15 -15 -15 -14 -14 -14 -14 -14 -14 -14 -14 -13 -13 -13 -13 -14 -14 -14 -15 -15 -15 -15 -15 -16 -16 -17 -17 -17 -17 -17 -17 -17 -17 -17
-14 -15 -15 -16 -15 -15 -15 -15 -15 -15 -15 -14 -14 -14 -15 -15 -14 -13 -14 -13 -14 -14 -14 -14 -14 -14 -14 -15 -15 -15 -16 -16 -17 -17 -17 -17 -17 -18 -18 -18 -18 -18 -18
-15 -15 -16 -15 -15 -15 -15 -15 -15 -15 -15 -15 -15 -15 -15 -15 -15 -14 -13 -14 -14 -14 -14 -14 -14 -15 -15 -15 -16 -16 -17 -17 -17 -17 -17 -18 -18 -18 -18 -18 -18 -18 -18
-16 -16 -15 -15 -15 -15 -15 -15 -15 -15 -15 -15 -15 -15 -15 -15 -14 -14 -14 -14 -14 -14 -14 -15 -15 -16 -16 -16 -17 -17 -17 -18 -18 -18 -18 -18 -18 -18 -18 -18 -18 -18 -18
-15 -15 -15 -15 -16 -15 -15 -15 -15 -15 -15 -15 -15 -15 -15 -15 -15 -14 -15 -15 -15 -15 -15 -15 -16 -17 -17 -17 -18 -18 -18 -19 -19 -19 -19 -19 -19 -19 -19 -19 -19 -19 -18
-15 -15 -15 -15 -16 -15 -15 -15 -15 -15 -15 -15 -15 -15 -15 -15 -15 -15 -15 -16 -16 -17 -16 -16 -16 -17 -17 -18 -18 -19 -19 -20 -20 -19 -19 -19 -19 -19 -19 -19 -19 -19 -19
-15 -15 -15 -15 -15 -16 -16 -15 -15 -15 -15 -15 -15 -15 -15 -15 -15 -15 -15 -15 -16 -17 -18 -17 -17 -18 -18 -19 -19 -19 -19 -20 -20 -20 -20 -20 -20 -20 -20 -20 -20 -19 -19
-16 -15 -15 -15 -16 -16 -16 -16 -15 -15 -15 -15 -15 -15 -15 -15 -16 -16 -16 -16 -16 -17 -18 -17 -18 -19 -19 -19 -19 -19 -20 -20 -20 -21 -21 -21 -21 -20 -20 -20 -20 -20 -20
-15 -16 -16 -16 -16 -16 -16 -16 -16 -16 -16 -15 -16 -16 -15 -16 -16 -15 -16 -17 -17 -17 -18 -18 -18 -19 -20 -20 -20 -20 -21 -21 -22 -21 -21 -21 -21 -21 -21 -21 -21 -21 -21
-16 -16 -16 -16 -16 -16 -16 -16 -16 -16 -16 -16 -15 -15 -15 -15 -16 -16 -17 -18 -18 -18 -17 -18 -18 -19 -20 -20 -20 -20 -21 -21 -21 -21 -21 -21 -21 -21 -22 -22 -22 -23 -24
-16 -16 -15 -16 -16 -16 -16 -16 -16 -16 -16 -16 -16 -16 -16 -16 -17 -17 -17 -18 -18 -19 -18 -18 -19 -20 -20 -20 -20 -21 -21 -21 -22 -22 -22 -22 -22 -23 -23 -24 -24 -25 -26
-15 -15 -15 -16 -16 -16 -16 -16 -16 -16 -16 -16 -16 -17 -17 -17 -17 -17 -18 -18 -18 -18 -19 -20 -20 -20 -20 -20 -21 -21 -21 -22 -22 -22 -23 -23 -23 -24 -25 -26 -27 -28 -29
-16 -16 -16 -16 -16 -16 -16 -16 -16 -16 -16 -16 -16 -17 -17 -18 -18 -18 -18 -18 -18 -19 -20 -21 -21 -21 -21 -21 -21 -22 -22 -22 -22 -22 -23 -24 -25 -26 -27 -28 -29 -30 -31
-16 -16 -16 -17 -17 -17 -16 -16 -16 -16 -16 -16 -16 -16 -17 -18 -18 -18 -18 -19 -19 -20 -20 -21 -21 -22 -21 -22 -22 -22 -22 -23 -23 -23 -24 -26 -27 -28 -29 -30 -31 -32 -32
-16 -16 -17 -17 -17 -17 -17 -16 -16 -16 -16 -17 -17 -17 -18 -18 -18 -19 -19 -20 -20 -21 -21 -21 -21 -21 -22 -23 -23 -23 -23 -23 -24 -25 -27 -28 -29 -30 -31 -32 -32 -32 -32
-16 -16 -17 -17 -17 -17 -17 -16 -16 -16 -17 -17 -17 -17 -19 -18 -19 -19 -19 -20 -20 -20 -20 -20 -21 -22 -22 -23 -23 -23 -23 -24 -25 -27 -28 -29 -31 -32 -32 -33 -33 -33 -33
-16 -17 -17 -17 -17 -17 -17 -17 -17 -17 -17 -17 -18 -18 -19 -19 -19 -20 -20 -20 -20 -21 -20 -21 -21 -22 -22 -23 -23 -24 -24 -25 -26 -27 -29 -31 -32 -33 -33 -33 -33 -33 -33
-17 -17 -17 -17 -17 -17 -17 -17 -17 -17 -17 -18 -18 -18 -19 -19 -19 -20 -20 -20 -20 -21 -21 -21 -21 -22 -22 -23 -23 -24 -25 -26 -27 -29 -30 -31 -33 -33 -33 -33 -33 -33 -33
-17 -17 -17 -17 -17 -17 -17 -17 -17 -17 -18 -18 -18 -19 -19 -19 -19 -20 -20 -20 -20 -21 -21 -22 -22 -22 -23 -23 -24 -25 -27 -28 -30 -31 -31 -32 -33 -33 -33 -33 -33 -34 -34
-17 -17 -17 -17 -17 -16 -16 -17 -17 -18 -18 -18 -19 -19 -19 -19 -19 -20 -20 -20 -21 -21 -22 -22 -23 -23 -23 -24 -26 -27 -29 -31 -31 -32 -32 -33 -33 -34 -34 -34 -34 -34 -34
-18 -17 -17 -17 -17 -17 -17 -17 -18 -18 -18 -18 -18 -19 -19 -19 -20 -20 -21 -21 -21 -22 -22 -23 -23 -23 -24 -25 -27 -28 -30 -32 -32 -33 -33 -34 -35 -34 -34 -34 -34 -34 -34
-17 -17 -17 -17 -17 -17 -17 -18 -18 -18 -18 -19 -19 -19 -20 -20 -20 -21 -21 -21 -22 -22 -23 -23 -23 -24 -25 -27 -28 -29 -31 -32 -32 -33 -34 -35 -35 -35 -35 -35 -35 -35 -35
-17 -17 -17 -17 -17 -17 -18 -18 -18 -18 -19 -19 -19 -19 -20 -20 -21 -21 -21 -21 -22 -22 -23 -24 -25 -25 -26 -28 -29 -30 -31 -32 -32 -33 -35 -36 -36 -36 -36 -35 -35 -36 -35
-17 -17 -17 -17 -17 -18 -18 -18 -19 -19 -19 -19 -20 -20 -20 -20 -21 -21 -21 -22 -22 -23 -23 -24 -25 -26 -27 -29 -30 -31 -31 -32 -32 -34 -35 -36 -36 -36 -36 -36 -36 -36 -36
-17 -17 -17 -17 -18 -18 -19 -19 -19 -19 -19 -20 -20 -20 -20 -21 -21 -22 -22 -22 -23 -23 -24 -24 -25 -27 -28 -30 -31 -31 -31 -32 -32 -33 -35 -36 -36 -36 -36 -36 -37 -36 -36